Caslav, Czech Republic

1:30 PM CEST on June 26, 2017 (GMT +0200)
Caslav

Weather History for LKCV - December, 2012

Change the Weather History Date:

Friday, December 7, 2012

  Actual Average Record
Temperature  
Mean Temperature 22 °F -  
Max Temperature 28 °F - - ()
Min Temperature 14 °F - - ()
Degree Days  
Heating Degree Days 44    
Moisture  
Dew Point 18 °F    
Average Humidity 85    
Maximum Humidity 93    
Minimum Humidity 69    
Precipitation  
Precipitation 0.00 in - - ()
Sea Level Pressure  
Sea Level Pressure 29.89 in    
Wind  
Wind Speed 4 mph ()    
Max Wind Speed 12 mph    
Max Gust Speed -    
Visibility 6.2 miles    
Events      
T = Trace of Precipitation, MM = Missing Value Source: Averaged Metar Reports

Daily Weather History Graph

Daily Weather History Graph

Search for Another Location

Airport or City:

Trip Planner

Search our weather history database for the weather conditions in past years. The results will help you decide how hot, cold, wet, or windy it might be!

Date:

Astronomy

Dec. 07, 2012 Rise Set
Actual Time 7:42 AM CET 3:57 PM CET
Civil Twilight 7:04 AM CET 4:35 PM CET
Nautical Twilight 6:23 AM CET 5:16 PM CET
Astronomical Twilight 5:44 AM CET 5:55 PM CET
Moon 12:08 AM CET (12/7) 12:17 PM CET (12/7)
Length of Visible Light 9h 30m
Length of Day
8h 14m
Last Quarter, 41% of the Moon is Illuminated
Dec 7
Last Quarter
Dec 13
New
Dec 20
First Quarter
Dec 28
Full
Jan 5
Last Quarter

Hourly Weather History & Observations

Time (CET) Temp. Windchill Dew Point Humidity Pressure Visibility Wind Dir Wind Speed Gust Speed Precip Events Conditions
12:00 AM 24.8 °F 14.0 °F 19.4 °F 80% 29.98 in 6.2 mi WNW 11.5 mph - N/A   Overcast
3:00 AM 21.2 °F 14.9 °F 17.6 °F 86% 29.95 in - WSW 4.6 mph - N/A   Clear
5:00 AM 21.2 °F - 17.6 °F 86% 29.95 in - WSW 2.3 mph - N/A   Clear
6:00 AM 21.2 °F 13.6 °F 17.6 °F 86% 29.95 in 6.2 mi WSW 5.8 mph - N/A   Mostly Cloudy
7:00 AM 19.4 °F - 17.6 °F 93% 29.95 in 6.2 mi SSW 1.2 mph - N/A   Mostly Cloudy
8:00 AM 19.4 °F 11.5 °F 17.6 °F 93% 29.92 in 6.2 mi SSE 5.8 mph - N/A   Scattered Clouds
9:00 AM 19.4 °F 12.8 °F 17.6 °F 93% 29.92 in 6.2 mi SSE 4.6 mph - N/A   Scattered Clouds
10:00 AM 23.0 °F 17.0 °F 19.4 °F 86% 29.92 in 6.2 mi SE 4.6 mph - N/A   Partly Cloudy
11:00 AM 24.8 °F 17.9 °F 19.4 °F 80% 29.92 in - SE 5.8 mph - N/A   Clear
12:00 PM 26.6 °F 20.0 °F 21.2 °F 80% 29.89 in - SE 5.8 mph - N/A   Clear
1:00 PM 26.6 °F 19.1 °F 19.4 °F 74% 29.86 in - SE 6.9 mph - N/A   Clear
2:00 PM 28.4 °F 22.2 °F 19.4 °F 69% 29.83 in - SE 5.8 mph - N/A   Clear
3:00 PM 26.6 °F 20.0 °F 19.4 °F 74% 29.83 in - East 5.8 mph - N/A   Clear
4:00 PM 24.8 °F 19.1 °F 19.4 °F 80% 29.83 in - East 4.6 mph - N/A   Clear
5:00 PM 21.2 °F - 19.4 °F 93% 29.83 in - East 2.3 mph - N/A   Clear
6:00 PM 23.0 °F 18.4 °F 17.6 °F 80% 29.83 in - ESE 3.5 mph - N/A   Clear
7:00 PM 19.4 °F 12.8 °F 17.6 °F 93% 29.83 in - East 4.6 mph - N/A   Clear
8:00 PM 19.4 °F - 15.8 °F 86% 29.86 in - Calm Calm - N/A   Clear
9:00 PM 17.6 °F - 15.8 °F 93% 29.86 in - Variable 1.2 mph - N/A   Clear
10:00 PM 15.8 °F - 14.0 °F 93% 29.86 in - Variable 2.3 mph - N/A   Clear
11:00 PM 14.0 °F - 12.2 °F 93% 29.89 in - Variable 1.2 mph - N/A   Clear